Year,Month,Day,Hour,Minute,Value (Times are PST for temperature in C)
2012,07,08,00,00,17.90
2012,07,08,00,01,17.90
2012,07,08,00,02,17.80
2012,07,08,00,03,17.70
2012,07,08,00,04,17.70
2012,07,08,00,05,17.60
2012,07,08,00,06,17.60
2012,07,08,00,07,17.50
2012,07,08,00,08,17.40
2012,07,08,00,09,17.30
2012,07,08,00,10,17.20
2012,07,08,00,11,17.20
2012,07,08,00,12,17.20
2012,07,08,00,13,17.20
2012,07,08,00,14,17.20
2012,07,08,00,15,17.20
2012,07,08,00,16,17.20
2012,07,08,00,17,17.20
2012,07,08,00,18,17.20
2012,07,08,00,19,17.20
2012,07,08,00,20,17.20
2012,07,08,00,21,17.20
2012,07,08,00,22,17.20
2012,07,08,00,23,17.20
2012,07,08,00,24,17.20
2012,07,08,00,25,17.20
2012,07,08,00,26,17.20
2012,07,08,00,27,17.10
2012,07,08,00,28,17.10
2012,07,08,00,29,17.00
2012,07,08,00,30,17.00
2012,07,08,00,31,17.00
2012,07,08,00,32,16.90
2012,07,08,00,33,16.90
2012,07,08,00,34,16.80
2012,07,08,00,35,16.80
2012,07,08,00,36,16.80
2012,07,08,00,37,16.80
2012,07,08,00,38,16.80
2012,07,08,00,39,16.80
2012,07,08,00,40,16.80
2012,07,08,00,41,16.80
2012,07,08,00,42,16.80
2012,07,08,00,43,16.80
2012,07,08,00,44,16.70
2012,07,08,00,45,16.70
2012,07,08,00,46,16.70
2012,07,08,00,47,16.70
2012,07,08,00,48,16.70
2012,07,08,00,49,16.80
2012,07,08,00,50,16.80
2012,07,08,00,51,16.80
2012,07,08,00,52,16.80
2012,07,08,00,53,16.80
2012,07,08,00,54,16.80
2012,07,08,00,55,16.80
2012,07,08,00,56,16.80
2012,07,08,00,57,16.80
2012,07,08,00,58,16.80
2012,07,08,00,59,16.80
2012,07,08,01,00,16.80
2012,07,08,01,01,16.80
2012,07,08,01,02,16.80
2012,07,08,01,03,16.80
2012,07,08,01,04,16.80
2012,07,08,01,05,16.70
2012,07,08,01,06,16.70
2012,07,08,01,07,16.60
2012,07,08,01,08,16.60
2012,07,08,01,09,16.60
2012,07,08,01,10,16.50
2012,07,08,01,11,16.50
2012,07,08,01,12,16.40
2012,07,08,01,13,16.40
2012,07,08,01,14,16.30
2012,07,08,01,15,16.30
2012,07,08,01,16,16.20
2012,07,08,01,17,16.20
2012,07,08,01,18,16.10
2012,07,08,01,19,16.10
2012,07,08,01,20,16.00
2012,07,08,01,21,16.00
2012,07,08,01,22,15.90
2012,07,08,01,23,15.90
2012,07,08,01,24,15.80
2012,07,08,01,25,15.80
2012,07,08,01,26,15.70
2012,07,08,01,27,15.70
2012,07,08,01,28,15.70
2012,07,08,01,29,15.60
2012,07,08,01,30,15.60
2012,07,08,01,31,15.60
2012,07,08,01,32,15.50
2012,07,08,01,33,15.40
2012,07,08,01,34,15.40
2012,07,08,01,35,15.30
2012,07,08,01,36,15.30
2012,07,08,01,37,15.30
2012,07,08,01,38,15.30
2012,07,08,01,39,15.30
2012,07,08,01,40,15.20
2012,07,08,01,41,15.20
2012,07,08,01,42,15.30
2012,07,08,01,43,15.30
2012,07,08,01,44,15.30
2012,07,08,01,45,15.30
2012,07,08,01,46,15.30
2012,07,08,01,47,15.30
2012,07,08,01,48,15.30
2012,07,08,01,49,15.30
2012,07,08,01,50,15.40
2012,07,08,01,51,15.40
2012,07,08,01,52,15.40
2012,07,08,01,53,15.40
2012,07,08,01,54,15.40
2012,07,08,01,55,15.40
2012,07,08,01,56,15.40
2012,07,08,01,57,15.50
2012,07,08,01,58,15.50
2012,07,08,01,59,15.50
2012,07,08,02,00,15.60
2012,07,08,02,01,15.60
2012,07,08,02,02,15.60
2012,07,08,02,03,15.70
2012,07,08,02,04,15.70
2012,07,08,02,05,15.70
2012,07,08,02,06,15.70
2012,07,08,02,07,15.70
2012,07,08,02,08,15.70
2012,07,08,02,09,15.80
2012,07,08,02,10,15.80
2012,07,08,02,11,15.80
2012,07,08,02,12,15.80
2012,07,08,02,13,15.80
2012,07,08,02,14,15.80
2012,07,08,02,15,15.80
2012,07,08,02,16,15.70
2012,07,08,02,17,15.70
2012,07,08,02,18,15.70
2012,07,08,02,19,15.70
2012,07,08,02,20,15.60
2012,07,08,02,21,15.60
2012,07,08,02,22,15.60
2012,07,08,02,23,15.60
2012,07,08,02,24,15.60
2012,07,08,02,25,15.60
2012,07,08,02,26,15.60
2012,07,08,02,27,15.60
2012,07,08,02,28,15.60
2012,07,08,02,29,15.60
2012,07,08,02,30,15.50
2012,07,08,02,31,15.50
2012,07,08,02,32,15.60
2012,07,08,02,33,15.60
2012,07,08,02,34,15.60
2012,07,08,02,35,15.60
2012,07,08,02,36,15.60
2012,07,08,02,37,15.60
2012,07,08,02,38,15.60
2012,07,08,02,39,15.70
2012,07,08,02,40,15.70
2012,07,08,02,41,15.70
2012,07,08,02,42,15.80
2012,07,08,02,43,15.80
2012,07,08,02,44,15.80
2012,07,08,02,45,15.90
2012,07,08,02,46,15.90
2012,07,08,02,47,15.90
2012,07,08,02,48,15.90
2012,07,08,02,49,16.00
2012,07,08,02,50,16.00
2012,07,08,02,51,16.00
2012,07,08,02,52,16.10
2012,07,08,02,53,16.10
2012,07,08,02,54,16.10
2012,07,08,02,55,16.10
2012,07,08,02,56,16.10
2012,07,08,02,57,16.10
2012,07,08,02,58,16.10
2012,07,08,02,59,16.10
2012,07,08,03,00,16.20
2012,07,08,03,01,16.20
2012,07,08,03,02,16.20
2012,07,08,03,03,16.20
2012,07,08,03,04,16.20
2012,07,08,03,05,16.20
2012,07,08,03,06,16.30
2012,07,08,03,07,16.30
2012,07,08,03,08,16.30
2012,07,08,03,09,16.30
2012,07,08,03,10,16.30
2012,07,08,03,11,16.30
2012,07,08,03,12,16.30
2012,07,08,03,13,16.30
2012,07,08,03,14,16.30
2012,07,08,03,15,16.30
2012,07,08,03,16,16.30
2012,07,08,03,17,16.30
2012,07,08,03,18,16.30
2012,07,08,03,19,16.30
2012,07,08,03,20,16.40
2012,07,08,03,21,16.40
2012,07,08,03,22,16.40
2012,07,08,03,23,16.40
2012,07,08,03,24,16.40
2012,07,08,03,25,16.50
2012,07,08,03,26,16.50
2012,07,08,03,27,16.60
2012,07,08,03,28,16.60
2012,07,08,03,29,16.60
2012,07,08,03,30,16.60
2012,07,08,03,31,16.60
2012,07,08,03,32,16.60
2012,07,08,03,33,16.60
2012,07,08,03,34,16.60
2012,07,08,03,35,16.60
2012,07,08,03,36,16.50
2012,07,08,03,37,16.50
2012,07,08,03,38,16.50
2012,07,08,03,39,16.40
2012,07,08,03,40,16.40
2012,07,08,03,41,16.40
2012,07,08,03,42,16.40
2012,07,08,03,43,16.30
2012,07,08,03,44,16.30
2012,07,08,03,45,16.30
2012,07,08,03,46,16.20
2012,07,08,03,47,16.20
2012,07,08,03,48,16.20
2012,07,08,03,49,16.10
2012,07,08,03,50,16.10
2012,07,08,03,51,16.10
2012,07,08,03,52,16.10
2012,07,08,03,53,16.10
2012,07,08,03,54,16.10
2012,07,08,03,55,16.10
2012,07,08,03,56,16.10
2012,07,08,03,57,16.10
2012,07,08,03,58,16.10
2012,07,08,03,59,16.20
2012,07,08,04,00,16.20
2012,07,08,04,01,16.20
2012,07,08,04,02,16.20
2012,07,08,04,03,16.20
2012,07,08,04,04,16.20
2012,07,08,04,05,16.20
2012,07,08,04,06,16.20
2012,07,08,04,07,16.20
2012,07,08,04,08,16.20
2012,07,08,04,09,16.20
2012,07,08,04,10,16.20
2012,07,08,04,11,16.20
2012,07,08,04,12,16.20
2012,07,08,04,13,16.20
2012,07,08,04,14,16.20
2012,07,08,04,15,16.10
2012,07,08,04,16,16.10
2012,07,08,04,17,16.10
2012,07,08,04,18,16.00
2012,07,08,04,19,16.00
2012,07,08,04,20,15.90
2012,07,08,04,21,15.90
2012,07,08,04,22,15.80
2012,07,08,04,23,15.80
2012,07,08,04,24,15.70
2012,07,08,04,25,15.60
2012,07,08,04,26,15.60
2012,07,08,04,27,15.50
2012,07,08,04,28,15.50
2012,07,08,04,29,15.40
2012,07,08,04,30,15.40
2012,07,08,04,31,15.40
2012,07,08,04,32,15.30
2012,07,08,04,33,15.30
2012,07,08,04,34,15.30
2012,07,08,04,35,15.30
2012,07,08,04,36,15.30
2012,07,08,04,37,15.30
2012,07,08,04,38,15.30
2012,07,08,04,39,15.30
2012,07,08,04,40,15.30
2012,07,08,04,41,15.30
2012,07,08,04,42,15.30
2012,07,08,04,43,15.30
2012,07,08,04,44,15.30
2012,07,08,04,45,15.30
2012,07,08,04,46,15.30
2012,07,08,04,47,15.30
2012,07,08,04,48,15.30
2012,07,08,04,49,15.30
2012,07,08,04,50,15.30
2012,07,08,04,51,15.30
2012,07,08,04,52,15.30
2012,07,08,04,53,15.30
2012,07,08,04,54,15.30
2012,07,08,04,55,15.30
2012,07,08,04,56,15.30
2012,07,08,04,57,15.30
2012,07,08,04,58,15.30
2012,07,08,04,59,15.30
2012,07,08,05,00,15.30
2012,07,08,05,01,15.30
2012,07,08,05,02,15.30
2012,07,08,05,03,15.30
2012,07,08,05,04,15.30
2012,07,08,05,05,15.30
2012,07,08,05,06,15.30
2012,07,08,05,07,15.30
2012,07,08,05,08,15.30
2012,07,08,05,09,15.30
2012,07,08,05,10,15.30
2012,07,08,05,11,15.30
2012,07,08,05,12,15.30
2012,07,08,05,13,15.30
2012,07,08,05,14,15.30
2012,07,08,05,15,15.30
2012,07,08,05,16,15.30
2012,07,08,05,17,15.30
2012,07,08,05,18,15.30
2012,07,08,05,19,15.30
2012,07,08,05,20,15.30
2012,07,08,05,21,15.30
2012,07,08,05,22,15.30
2012,07,08,05,23,15.30
2012,07,08,05,24,15.30
2012,07,08,05,25,15.30
2012,07,08,05,26,15.30
2012,07,08,05,27,15.30
2012,07,08,05,28,15.30
2012,07,08,05,29,15.30
2012,07,08,05,30,15.30
2012,07,08,05,31,15.30
2012,07,08,05,32,15.30
2012,07,08,05,33,15.30
2012,07,08,05,34,15.30
2012,07,08,05,35,15.30
2012,07,08,05,36,15.30
2012,07,08,05,37,15.30
2012,07,08,05,38,15.30
2012,07,08,05,39,15.30
2012,07,08,05,40,15.30
2012,07,08,05,41,15.30
2012,07,08,05,42,15.30
2012,07,08,05,43,15.30
2012,07,08,05,44,15.30
2012,07,08,05,45,15.30
2012,07,08,05,46,15.30
2012,07,08,05,47,15.30
2012,07,08,05,48,15.20
2012,07,08,05,49,15.30
2012,07,08,05,50,15.30
2012,07,08,05,51,15.30
2012,07,08,05,52,15.30
2012,07,08,05,53,15.30
2012,07,08,05,54,15.30
2012,07,08,05,55,15.30
2012,07,08,05,56,15.40
2012,07,08,05,57,15.40
2012,07,08,05,58,15.40
2012,07,08,05,59,15.40
2012,07,08,06,00,15.50
2012,07,08,06,01,15.50
2012,07,08,06,02,15.50
2012,07,08,06,03,15.50
2012,07,08,06,04,15.60
2012,07,08,06,05,15.60
2012,07,08,06,06,15.60
2012,07,08,06,07,15.60
2012,07,08,06,08,15.60
2012,07,08,06,09,15.70
2012,07,08,06,10,15.70
2012,07,08,06,11,15.70
2012,07,08,06,12,15.80
2012,07,08,06,13,15.80
2012,07,08,06,14,15.80
2012,07,08,06,15,15.80
2012,07,08,06,16,15.80
2012,07,08,06,17,15.90
2012,07,08,06,18,15.90
2012,07,08,06,19,15.90
2012,07,08,06,20,16.00
2012,07,08,06,21,16.00
2012,07,08,06,22,16.10
2012,07,08,06,23,16.10
2012,07,08,06,24,16.20
2012,07,08,06,25,16.20
2012,07,08,06,26,16.30
2012,07,08,06,27,16.30
2012,07,08,06,28,16.40
2012,07,08,06,29,16.40
2012,07,08,06,30,16.40
2012,07,08,06,31,16.50
2012,07,08,06,32,16.50
2012,07,08,06,33,16.50
2012,07,08,06,34,16.60
2012,07,08,06,35,16.60
2012,07,08,06,36,16.60
2012,07,08,06,37,16.60
2012,07,08,06,38,16.60
2012,07,08,06,39,16.70
2012,07,08,06,40,16.70
2012,07,08,06,41,16.70
2012,07,08,06,42,16.70
2012,07,08,06,43,16.80
2012,07,08,06,44,16.80
2012,07,08,06,45,16.80
2012,07,08,06,46,16.80
2012,07,08,06,47,16.80
2012,07,08,06,48,16.80
2012,07,08,06,49,16.80
2012,07,08,06,50,16.80
2012,07,08,06,51,16.80
2012,07,08,06,52,16.90
2012,07,08,06,53,16.90
2012,07,08,06,54,16.90
2012,07,08,06,55,16.90
2012,07,08,06,56,16.90
2012,07,08,06,57,16.90
2012,07,08,06,58,16.90
2012,07,08,06,59,17.00
2012,07,08,07,00,17.00
2012,07,08,07,01,17.00
2012,07,08,07,02,17.00
2012,07,08,07,03,17.10
2012,07,08,07,04,17.10
2012,07,08,07,05,17.10
2012,07,08,07,06,17.10
2012,07,08,07,07,17.10
2012,07,08,07,08,17.10
2012,07,08,07,09,17.10
2012,07,08,07,10,17.20
2012,07,08,07,11,17.20
2012,07,08,07,12,17.20
2012,07,08,07,13,17.20
2012,07,08,07,14,17.10
2012,07,08,07,15,17.10
2012,07,08,07,16,17.10
2012,07,08,07,17,17.10
2012,07,08,07,18,17.10
2012,07,08,07,19,17.10
2012,07,08,07,20,17.10
2012,07,08,07,21,17.20
2012,07,08,07,22,17.20
2012,07,08,07,23,17.20
2012,07,08,07,24,17.30
2012,07,08,07,25,17.30
2012,07,08,07,26,17.30
2012,07,08,07,27,17.30
2012,07,08,07,28,17.40
2012,07,08,07,29,17.40
2012,07,08,07,30,17.50
2012,07,08,07,31,17.50
2012,07,08,07,32,17.60
2012,07,08,07,33,17.60
2012,07,08,07,34,17.70
2012,07,08,07,35,17.70
2012,07,08,07,36,17.70
2012,07,08,07,37,17.80
2012,07,08,07,38,17.80
2012,07,08,07,39,17.90
2012,07,08,07,40,17.90
2012,07,08,07,41,18.00
2012,07,08,07,42,18.10
2012,07,08,07,43,18.10
2012,07,08,07,44,18.20
2012,07,08,07,45,18.20
2012,07,08,07,46,18.20
2012,07,08,07,47,18.30
2012,07,08,07,48,18.30
2012,07,08,07,49,18.40
2012,07,08,07,50,18.40
2012,07,08,07,51,18.40
2012,07,08,07,52,18.50
2012,07,08,07,53,18.50
2012,07,08,07,54,18.60
2012,07,08,07,55,18.60
2012,07,08,07,56,18.60
2012,07,08,07,57,18.60
2012,07,08,07,58,18.60
2012,07,08,07,59,18.70
2012,07,08,08,00,18.70
2012,07,08,08,01,18.70
2012,07,08,08,02,18.80
2012,07,08,08,03,18.80
2012,07,08,08,04,18.80
2012,07,08,08,05,18.90
2012,07,08,08,06,18.90
2012,07,08,08,07,18.90
2012,07,08,08,08,19.00
2012,07,08,08,09,19.00
2012,07,08,08,10,19.00
2012,07,08,08,11,19.00
2012,07,08,08,12,19.00
2012,07,08,08,13,19.00
2012,07,08,08,14,18.90
2012,07,08,08,15,18.90
2012,07,08,08,16,18.90
2012,07,08,08,17,18.90
2012,07,08,08,18,18.90
2012,07,08,08,19,18.90
2012,07,08,08,20,19.00
2012,07,08,08,21,19.00
2012,07,08,08,22,19.00
2012,07,08,08,23,19.00
2012,07,08,08,24,19.00
2012,07,08,08,25,19.10
2012,07,08,08,26,19.10
2012,07,08,08,27,19.10
2012,07,08,08,28,19.10
2012,07,08,08,29,19.10
2012,07,08,08,30,19.10
2012,07,08,08,31,19.10
2012,07,08,08,32,19.00
2012,07,08,08,33,19.00
2012,07,08,08,34,18.90
2012,07,08,08,35,18.80
2012,07,08,08,36,18.80
2012,07,08,08,37,18.70
2012,07,08,08,38,18.70
2012,07,08,08,39,18.70
2012,07,08,08,40,18.60
2012,07,08,08,41,18.50
2012,07,08,08,42,18.50
2012,07,08,08,43,18.40
2012,07,08,08,44,18.40
2012,07,08,08,45,18.30
2012,07,08,08,46,18.30
2012,07,08,08,47,18.30
2012,07,08,08,48,18.30
2012,07,08,08,49,18.40
2012,07,08,08,50,18.40
2012,07,08,08,51,18.50
2012,07,08,08,52,18.50
2012,07,08,08,53,18.60
2012,07,08,08,54,18.60
2012,07,08,08,55,18.70
2012,07,08,08,56,18.70
2012,07,08,08,57,18.80
2012,07,08,08,58,18.80
2012,07,08,08,59,18.90
2012,07,08,09,00,18.90
2012,07,08,09,01,18.90
2012,07,08,09,02,18.90
2012,07,08,09,03,18.90
2012,07,08,09,04,18.90
2012,07,08,09,05,18.80
2012,07,08,09,06,18.80
2012,07,08,09,07,18.70
2012,07,08,09,08,18.70
2012,07,08,09,09,18.70
2012,07,08,09,10,18.60
2012,07,08,09,11,18.60
2012,07,08,09,12,18.60
2012,07,08,09,13,18.60
2012,07,08,09,14,18.60
2012,07,08,09,15,18.50
2012,07,08,09,16,18.50
2012,07,08,09,17,18.40
2012,07,08,09,18,18.40
2012,07,08,09,19,18.30
2012,07,08,09,20,18.30
2012,07,08,09,21,18.30
2012,07,08,09,22,18.30
2012,07,08,09,23,18.40
2012,07,08,09,24,18.40
2012,07,08,09,25,18.50
2012,07,08,09,26,18.50
2012,07,08,09,27,18.60
2012,07,08,09,28,18.60
2012,07,08,09,29,18.70
2012,07,08,09,30,18.70
2012,07,08,09,31,18.80
2012,07,08,09,32,18.80
2012,07,08,09,33,18.90
2012,07,08,09,34,18.90
2012,07,08,09,35,19.00
2012,07,08,09,36,19.00
2012,07,08,09,37,19.10
2012,07,08,09,38,19.10
2012,07,08,09,39,19.10
2012,07,08,09,40,19.10
2012,07,08,09,41,19.10
2012,07,08,09,42,19.10
2012,07,08,09,43,19.10
2012,07,08,09,44,19.10
2012,07,08,09,45,19.20
2012,07,08,09,46,19.20
2012,07,08,09,47,19.20
2012,07,08,09,48,19.20
2012,07,08,09,49,19.20
2012,07,08,09,50,19.30
2012,07,08,09,51,19.30
2012,07,08,09,52,19.40
2012,07,08,09,53,19.50
2012,07,08,09,54,19.60
2012,07,08,09,55,19.60
2012,07,08,09,56,19.70
2012,07,08,09,57,19.80
2012,07,08,09,58,19.90
2012,07,08,09,59,20.00
2012,07,08,10,00,20.10
2012,07,08,10,01,20.20
2012,07,08,10,02,20.30
2012,07,08,10,03,20.40
2012,07,08,10,04,20.50
2012,07,08,10,05,20.50
2012,07,08,10,06,20.50
2012,07,08,10,07,20.50
2012,07,08,10,08,20.50
2012,07,08,10,09,20.50
2012,07,08,10,10,20.50
2012,07,08,10,11,20.50
2012,07,08,10,12,20.60
2012,07,08,10,13,20.60
2012,07,08,10,14,20.60
2012,07,08,10,15,20.60
2012,07,08,10,16,20.60
2012,07,08,10,17,20.60
2012,07,08,10,18,20.70
2012,07,08,10,19,20.60
2012,07,08,10,20,20.60
2012,07,08,10,21,20.60
2012,07,08,10,22,20.60
2012,07,08,10,23,20.60
2012,07,08,10,24,20.60
2012,07,08,10,25,20.70
2012,07,08,10,26,20.80
2012,07,08,10,27,20.80
2012,07,08,10,28,20.90
2012,07,08,10,29,21.00
2012,07,08,10,30,21.10
2012,07,08,10,31,21.20
2012,07,08,10,32,21.30
2012,07,08,10,33,21.40
2012,07,08,10,34,21.40
2012,07,08,10,35,21.50
2012,07,08,10,36,21.60
2012,07,08,10,37,21.70
2012,07,08,10,38,21.70
2012,07,08,10,39,21.70
2012,07,08,10,40,21.80
2012,07,08,10,41,21.80
2012,07,08,10,42,21.80
2012,07,08,10,43,21.80
2012,07,08,10,44,21.80
2012,07,08,10,45,21.80
2012,07,08,10,46,21.80
2012,07,08,10,47,21.80
2012,07,08,10,48,21.80
2012,07,08,10,49,21.90
2012,07,08,10,50,21.90
2012,07,08,10,51,22.00
2012,07,08,10,52,22.00
2012,07,08,10,53,22.00
2012,07,08,10,54,22.10
2012,07,08,10,55,22.10
2012,07,08,10,56,22.10
2012,07,08,10,57,22.20
2012,07,08,10,58,22.20
2012,07,08,10,59,22.30
2012,07,08,11,00,22.30
2012,07,08,11,01,22.30
2012,07,08,11,02,22.30
2012,07,08,11,03,22.30
2012,07,08,11,04,22.40
2012,07,08,11,05,22.40
2012,07,08,11,06,22.40
2012,07,08,11,07,22.40
2012,07,08,11,08,22.40
2012,07,08,11,09,22.50
2012,07,08,11,10,22.50
2012,07,08,11,11,22.50
2012,07,08,11,12,22.70
2012,07,08,11,13,22.80
2012,07,08,11,14,22.80
2012,07,08,11,15,22.90
2012,07,08,11,16,22.90
2012,07,08,11,17,22.90
2012,07,08,11,18,23.00
2012,07,08,11,19,23.00
2012,07,08,11,20,22.90
2012,07,08,11,21,23.00
2012,07,08,11,22,23.00
2012,07,08,11,23,23.00
2012,07,08,11,24,23.10
2012,07,08,11,25,23.10
2012,07,08,11,26,23.20
2012,07,08,11,27,23.20
2012,07,08,11,28,23.30
2012,07,08,11,29,23.40
2012,07,08,11,30,23.50
2012,07,08,11,31,23.50
2012,07,08,11,32,23.50
2012,07,08,11,33,23.40
2012,07,08,11,34,23.40
2012,07,08,11,35,23.40
2012,07,08,11,36,23.40
2012,07,08,11,37,23.40
2012,07,08,11,38,23.40
2012,07,08,11,39,23.40
2012,07,08,11,40,23.40
2012,07,08,11,41,23.40
2012,07,08,11,42,23.40
2012,07,08,11,43,23.40
2012,07,08,11,44,23.30
2012,07,08,11,45,23.20
2012,07,08,11,46,23.20
2012,07,08,11,47,23.10
2012,07,08,11,48,23.00
2012,07,08,11,49,23.00
2012,07,08,11,50,22.90
2012,07,08,11,51,22.90
2012,07,08,11,52,23.00
2012,07,08,11,53,23.00
2012,07,08,11,54,23.00
2012,07,08,11,55,23.00
2012,07,08,11,56,23.00
2012,07,08,11,57,23.10
2012,07,08,11,58,23.10
2012,07,08,11,59,23.20
2012,07,08,12,00,23.30
2012,07,08,12,01,23.40
2012,07,08,12,02,23.40
2012,07,08,12,03,23.40
2012,07,08,12,04,23.30
2012,07,08,12,05,23.30
2012,07,08,12,06,23.30
2012,07,08,12,07,23.20
2012,07,08,12,08,23.20
2012,07,08,12,09,23.10
2012,07,08,12,10,23.00
2012,07,08,12,11,22.90
2012,07,08,12,12,22.80
2012,07,08,12,13,22.80
2012,07,08,12,14,22.70
2012,07,08,12,15,22.70
2012,07,08,12,16,22.70
2012,07,08,12,17,22.60
2012,07,08,12,18,22.60
2012,07,08,12,19,22.70
2012,07,08,12,20,22.60
2012,07,08,12,21,22.60
2012,07,08,12,22,22.60
2012,07,08,12,23,22.50
2012,07,08,12,24,22.40
2012,07,08,12,25,22.40
2012,07,08,12,26,22.30
2012,07,08,12,27,22.20
2012,07,08,12,28,22.10
2012,07,08,12,29,22.10
2012,07,08,12,30,22.00
2012,07,08,12,31,22.00
2012,07,08,12,32,22.00
2012,07,08,12,33,22.00
2012,07,08,12,34,22.00
2012,07,08,12,35,21.90
2012,07,08,12,36,21.90
2012,07,08,12,37,21.90
2012,07,08,12,38,21.90
2012,07,08,12,39,21.90
2012,07,08,12,40,21.90
2012,07,08,12,41,21.90
2012,07,08,12,42,21.90
2012,07,08,12,43,21.90
2012,07,08,12,44,21.90
2012,07,08,12,45,21.90
2012,07,08,12,46,21.90
2012,07,08,12,47,21.90
2012,07,08,12,48,21.80
2012,07,08,12,49,21.80
2012,07,08,12,50,21.80
2012,07,08,12,51,21.80
2012,07,08,12,52,21.80
2012,07,08,12,53,21.80
2012,07,08,12,54,21.90
2012,07,08,12,55,21.90
2012,07,08,12,56,21.90
2012,07,08,12,57,22.00
2012,07,08,12,58,22.10
2012,07,08,12,59,22.10
2012,07,08,13,00,22.20
2012,07,08,13,01,22.20
2012,07,08,13,02,22.20
2012,07,08,13,03,22.20
2012,07,08,13,04,22.20
2012,07,08,13,05,22.30
2012,07,08,13,06,22.30
2012,07,08,13,07,22.30
2012,07,08,13,08,22.30
2012,07,08,13,09,22.30
2012,07,08,13,10,22.20
2012,07,08,13,11,22.10
2012,07,08,13,12,22.10
2012,07,08,13,13,22.10
2012,07,08,13,14,22.10
2012,07,08,13,15,22.00
2012,07,08,13,16,22.00
2012,07,08,13,17,22.00
2012,07,08,13,18,22.00
2012,07,08,13,19,22.00
2012,07,08,13,20,22.10
2012,07,08,13,21,22.10
2012,07,08,13,22,22.10
2012,07,08,13,23,22.10
2012,07,08,13,24,22.20
2012,07,08,13,25,22.20
2012,07,08,13,26,22.20
2012,07,08,13,27,22.20
2012,07,08,13,28,22.20
2012,07,08,13,29,22.20
2012,07,08,13,30,22.20
2012,07,08,13,31,22.30
2012,07,08,13,32,22.30
2012,07,08,13,33,22.30
2012,07,08,13,34,22.40
2012,07,08,13,35,22.40
2012,07,08,13,36,22.40
2012,07,08,13,37,22.50
2012,07,08,13,38,22.50
2012,07,08,13,39,22.50
2012,07,08,13,40,22.60
2012,07,08,13,41,22.70
2012,07,08,13,42,22.70
2012,07,08,13,43,22.70
2012,07,08,13,44,22.80
2012,07,08,13,45,22.80
2012,07,08,13,46,22.90
2012,07,08,13,47,22.90
2012,07,08,13,48,22.90
2012,07,08,13,49,23.00
2012,07,08,13,50,23.00
2012,07,08,13,51,23.00
2012,07,08,13,52,23.00
2012,07,08,13,53,23.00
2012,07,08,13,54,23.00
2012,07,08,13,55,23.00
2012,07,08,13,56,23.00
2012,07,08,13,57,22.90
2012,07,08,13,58,22.90
2012,07,08,13,59,23.00
2012,07,08,14,00,23.00
2012,07,08,14,01,23.10
2012,07,08,14,02,23.10
2012,07,08,14,03,23.10
2012,07,08,14,04,23.10
2012,07,08,14,05,23.20
2012,07,08,14,06,23.20
2012,07,08,14,07,23.20
2012,07,08,14,08,23.20
2012,07,08,14,09,23.20
2012,07,08,14,10,23.20
2012,07,08,14,11,23.20
2012,07,08,14,12,23.20
2012,07,08,14,13,23.20
2012,07,08,14,14,23.30
2012,07,08,14,15,23.30
2012,07,08,14,16,23.40
2012,07,08,14,17,23.40
2012,07,08,14,18,23.50
2012,07,08,14,19,23.40
2012,07,08,14,20,23.40
2012,07,08,14,21,23.40
2012,07,08,14,22,23.40
2012,07,08,14,23,23.40
2012,07,08,14,24,23.40
2012,07,08,14,25,23.50
2012,07,08,14,26,23.50
2012,07,08,14,27,23.50
2012,07,08,14,28,23.50
2012,07,08,14,29,23.40
2012,07,08,14,30,23.40
2012,07,08,14,31,23.40
2012,07,08,14,32,23.40
2012,07,08,14,33,23.40
2012,07,08,14,34,23.50
2012,07,08,14,35,23.50
2012,07,08,14,36,23.50
2012,07,08,14,37,23.60
2012,07,08,14,38,23.60
2012,07,08,14,39,23.60
2012,07,08,14,40,23.70
2012,07,08,14,41,23.70
2012,07,08,14,42,23.80
2012,07,08,14,43,23.80
2012,07,08,14,44,23.80
2012,07,08,14,45,23.90
2012,07,08,14,46,23.90
2012,07,08,14,47,23.90
2012,07,08,14,48,24.00
2012,07,08,14,49,24.00
2012,07,08,14,50,24.10
2012,07,08,14,51,24.10
2012,07,08,14,52,24.10
2012,07,08,14,53,24.00
2012,07,08,14,54,23.90
2012,07,08,14,55,23.80
2012,07,08,14,56,23.60
2012,07,08,14,57,23.50
2012,07,08,14,58,23.30
2012,07,08,14,59,23.30
2012,07,08,15,00,23.20
2012,07,08,15,01,23.10
2012,07,08,15,02,23.00
2012,07,08,15,03,22.90
2012,07,08,15,04,23.00
2012,07,08,15,05,23.00
2012,07,08,15,06,22.90
2012,07,08,15,07,22.80
2012,07,08,15,08,22.80
2012,07,08,15,09,22.90
2012,07,08,15,10,22.90
2012,07,08,15,11,22.80
2012,07,08,15,12,22.80
2012,07,08,15,13,22.80
2012,07,08,15,14,22.80
2012,07,08,15,15,23.00
2012,07,08,15,16,23.00
2012,07,08,15,17,23.00
2012,07,08,15,18,23.00
2012,07,08,15,19,23.00
2012,07,08,15,20,23.00
2012,07,08,15,21,22.90
2012,07,08,15,22,22.90
2012,07,08,15,23,23.00
2012,07,08,15,24,23.00
2012,07,08,15,25,22.90
2012,07,08,15,26,22.90
2012,07,08,15,27,23.00
2012,07,08,15,28,23.00
2012,07,08,15,29,23.10
2012,07,08,15,30,23.10
2012,07,08,15,31,23.10
2012,07,08,15,32,23.10
2012,07,08,15,33,23.10
2012,07,08,15,34,23.00
2012,07,08,15,35,23.00
2012,07,08,15,36,23.00
2012,07,08,15,37,23.10
2012,07,08,15,38,23.10
2012,07,08,15,39,23.20
2012,07,08,15,40,23.20
2012,07,08,15,41,23.30
2012,07,08,15,42,23.40
2012,07,08,15,43,23.40
2012,07,08,15,44,23.40
2012,07,08,15,45,23.50
2012,07,08,15,46,23.50
2012,07,08,15,47,23.40
2012,07,08,15,48,23.40
2012,07,08,15,49,23.30
2012,07,08,15,50,23.30
2012,07,08,15,51,23.40
2012,07,08,15,52,23.40
2012,07,08,15,53,23.50
2012,07,08,15,54,23.60
2012,07,08,15,55,23.60
2012,07,08,15,56,23.60
2012,07,08,15,57,23.60
2012,07,08,15,58,23.60
2012,07,08,15,59,23.60
2012,07,08,16,00,23.60
2012,07,08,16,01,23.70
2012,07,08,16,02,23.70
2012,07,08,16,03,23.70
2012,07,08,16,04,23.80
2012,07,08,16,05,23.80
2012,07,08,16,06,23.90
2012,07,08,16,07,24.00
2012,07,08,16,08,24.00
2012,07,08,16,09,24.20
2012,07,08,16,10,24.30
2012,07,08,16,11,24.30
2012,07,08,16,12,24.30
2012,07,08,16,13,24.30
2012,07,08,16,14,24.30
2012,07,08,16,15,24.20
2012,07,08,16,16,24.20
2012,07,08,16,17,24.10
2012,07,08,16,18,24.10
2012,07,08,16,19,24.00
2012,07,08,16,20,24.00
2012,07,08,16,21,23.90
2012,07,08,16,22,23.90
2012,07,08,16,23,23.90
2012,07,08,16,24,23.80
2012,07,08,16,25,23.80
2012,07,08,16,26,23.70
2012,07,08,16,27,23.70
2012,07,08,16,28,23.70
2012,07,08,16,29,23.70
2012,07,08,16,30,23.70
2012,07,08,16,31,23.70
2012,07,08,16,32,23.70
2012,07,08,16,33,23.70
2012,07,08,16,34,23.70
2012,07,08,16,35,23.60
2012,07,08,16,36,23.60
2012,07,08,16,37,23.50
2012,07,08,16,38,23.50
2012,07,08,16,39,23.40
2012,07,08,16,40,23.40
2012,07,08,16,41,23.40
2012,07,08,16,42,23.40
2012,07,08,16,43,23.40
2012,07,08,16,44,23.40
2012,07,08,16,45,23.50
2012,07,08,16,46,23.50
2012,07,08,16,47,23.60
2012,07,08,16,48,23.70
2012,07,08,16,49,23.70
2012,07,08,16,50,23.80
2012,07,08,16,51,23.90
2012,07,08,16,52,23.90
2012,07,08,16,53,24.00
2012,07,08,16,54,24.00
2012,07,08,16,55,24.10
2012,07,08,16,56,24.10
2012,07,08,16,57,24.00
2012,07,08,16,58,24.00
2012,07,08,16,59,23.90
2012,07,08,17,00,23.90
2012,07,08,17,01,23.80
2012,07,08,17,02,23.80
2012,07,08,17,03,23.80
2012,07,08,17,04,23.80
2012,07,08,17,05,23.90
2012,07,08,17,06,24.00
2012,07,08,17,07,24.00
2012,07,08,17,08,24.00
2012,07,08,17,09,23.90
2012,07,08,17,10,23.80
2012,07,08,17,11,23.80
2012,07,08,17,12,23.80
2012,07,08,17,13,23.70
2012,07,08,17,14,23.70
2012,07,08,17,15,23.70
2012,07,08,17,16,23.70
2012,07,08,17,17,23.70
2012,07,08,17,18,23.70
2012,07,08,17,19,23.70